Location: Trebic
(49.2170°N, 15.8830°E)
Time: 18:15:22
(UTC+02:00)

Transit 4A - Pass Details

Date: 27 August 2019
Orbit: 865 x 979 km, 66.8° (Epoch: 22 September)

Event Time Altitude Azimuth Distance (km) Brightness Sun altitude
Rises 03:43:11 0° 319° (NW) 3,630 11.1 -20.4°
Reaches altitude 10° 03:46:01 10° 310° (NW) 2,663 10.2 -20.1°
Maximum altitude 03:51:23 32° 249° (WSW) 1,530 8.5 -19.5°
Enters shadow 03:51:29 32° 248° (WSW) 1,530 8.5 -19.5°
Drops below altitude 10° 03:56:36 10° 189° (S) 2,577 - -18.9°
Sets 03:59:18 0° 179° (S) 3,496 - -18.6°
